Вернуться в каталог

STARLINK-2622

АктивенСвязьVLEO
NORAD 48360·PAYLOAD·🇺🇸 United States

Запущен May 4, 2021 с Cape Canaveral Space Force Station

Loading…

Ближайшие Пролёты (ближайшие 24 часа)

TLE

СвежийSource: CelesTrak SupGP

Эпоха: Sep 14, 2026, 19:57 UTC

1 48360C 21038H   26257.83173611  .00023114  00000+0  74337-3 0  2571
2 48360  53.1592 197.9303 0001437 102.5167 340.3963 15.31686161    14

Отслеживайте STARLINK-2622 в реальном времени с AllMySat

Download on the App Store